TimeCDT,TemperatureF,Dew PointF,Humidity,Sea Level PressureIn,VisibilityMPH,Wind Direction,Wind SpeedMPH,Gust SpeedMPH,PrecipitationIn,Events,Conditions,WindDirDegrees,DateUTC
12:54 AM,46.9,43.0,86,29.47,10.0,West,16.1,24.2,N/A,,Overcast,270,2012-10-19 05:54:00
1:54 AM,46.0,43.0,89,29.47,10.0,West,15.0,24.2,N/A,,Overcast,260,2012-10-19 06:54:00
2:17 AM,46.4,42.8,87,29.47,10.0,West,15.0,24.2,N/A,,Overcast,260,2012-10-19 07:17:00
2:54 AM,46.0,41.0,83,29.48,10.0,West,15.0,21.9,0.00,Rain,Light Rain,270,2012-10-19 07:54:00
3:54 AM,45.0,39.9,82,29.49,10.0,West,16.1,23.0,0.02,Rain,Light Rain,270,2012-10-19 08:54:00
4:54 AM,44.1,39.9,85,29.49,10.0,West,10.4,-,0.01,Rain,Light Rain,260,2012-10-19 09:54:00
5:05 AM,44.6,39.2,81,29.49,10.0,West,11.5,-,0.00,Rain,Light Rain,270,2012-10-19 10:05:00
5:18 AM,42.8,41.0,93,29.49,10.0,WSW,10.4,-,0.00,Rain,Light Rain,250,2012-10-19 10:18:00
5:54 AM,44.1,41.0,89,29.51,5.0,West,10.4,-,0.01,Rain,Light Rain,260,2012-10-19 10:54:00
6:21 AM,42.8,41.0,93,29.51,4.0,West,11.5,-,0.00,Rain,Light Rain,270,2012-10-19 11:21:00
6:54 AM,43.0,41.0,93,29.52,8.0,West,12.7,-,0.00,,Overcast,270,2012-10-19 11:54:00
6:59 AM,42.8,41.0,93,29.52,7.0,West,8.1,-,N/A,,Overcast,280,2012-10-19 11:59:00
7:09 AM,42.8,41.0,93,29.52,10.0,West,9.2,-,N/A,,Overcast,280,2012-10-19 12:09:00
7:54 AM,44.1,41.0,89,29.53,10.0,West,9.2,-,N/A,,Overcast,270,2012-10-19 12:54:00
8:54 AM,44.1,42.1,93,29.56,3.0,West,9.2,-,0.00,Rain,Light Rain,280,2012-10-19 13:54:00
9:07 AM,44.6,42.8,93,29.56,2.5,West,9.2,-,0.00,,Overcast,270,2012-10-19 14:07:00
9:19 AM,44.6,42.8,93,29.56,2.0,West,11.5,-,0.01,Rain,Light Rain,270,2012-10-19 14:19:00
9:52 AM,44.6,42.8,93,29.57,5.0,West,11.5,18.4,0.01,,Overcast,280,2012-10-19 14:52:00
9:54 AM,45.0,43.0,93,29.58,7.0,West,11.5,18.4,0.01,,Overcast,280,2012-10-19 14:54:00
10:54 AM,46.9,44.1,90,29.60,10.0,WNW,15.0,23.0,N/A,,Overcast,290,2012-10-19 15:54:00
11:03 AM,46.4,44.6,93,29.60,10.0,WNW,15.0,24.2,N/A,,Overcast,300,2012-10-19 16:03:00
11:50 AM,50.0,44.6,82,29.62,10.0,WNW,16.1,-,N/A,,Overcast,300,2012-10-19 16:50:00
11:54 AM,48.9,44.1,83,29.62,10.0,West,13.8,20.7,N/A,,Overcast,280,2012-10-19 16:54:00
12:50 PM,51.8,44.6,76,29.64,10.0,WNW,16.1,-,0.00,,Overcast,290,2012-10-19 17:50:00
12:54 PM,50.0,44.1,80,29.64,10.0,WNW,11.5,19.6,0.00,,Overcast,290,2012-10-19 17:54:00
1:54 PM,52.0,43.0,71,29.64,10.0,WNW,13.8,-,N/A,,Overcast,300,2012-10-19 18:54:00
2:54 PM,52.0,42.1,69,29.66,10.0,West,12.7,-,N/A,,Overcast,280,2012-10-19 19:54:00
3:54 PM,53.1,42.1,66,29.66,10.0,West,5.8,-,N/A,,Overcast,260,2012-10-19 20:54:00
4:54 PM,53.1,42.1,66,29.69,10.0,West,12.7,19.6,N/A,,Overcast,270,2012-10-19 21:54:00
5:54 PM,50.0,44.1,80,29.70,10.0,West,11.5,-,N/A,,Overcast,260,2012-10-19 22:54:00
6:31 PM,50.0,44.6,82,29.71,10.0,WSW,12.7,-,N/A,,Overcast,240,2012-10-19 23:31:00
6:54 PM,50.0,45.0,83,29.72,8.0,West,12.7,-,0.00,Rain,Light Rain,270,2012-10-19 23:54:00
7:54 PM,48.0,44.1,86,29.75,10.0,West,9.2,18.4,0.00,,Overcast,270,2012-10-20 00:54:00
8:21 PM,48.2,44.6,87,29.74,10.0,West,10.4,-,N/A,,Overcast,270,2012-10-20 01:21:00
8:54 PM,48.0,44.1,86,29.75,10.0,West,15.0,-,N/A,,Overcast,270,2012-10-20 01:54:00
9:47 PM,46.4,44.6,93,29.76,7.0,West,10.4,-,0.00,Rain,Light Rain,280,2012-10-20 02:47:00
9:54 PM,46.9,44.1,90,29.76,10.0,West,12.7,-,0.00,Rain,Light Rain,270,2012-10-20 02:54:00
10:04 PM,46.4,44.6,93,29.75,9.0,West,10.4,-,N/A,,Overcast,270,2012-10-20 03:04:00
10:54 PM,46.9,44.1,90,29.77,10.0,West,6.9,-,N/A,,Overcast,280,2012-10-20 03:54:00
11:18 PM,46.4,44.6,93,29.76,10.0,West,11.5,-,0.00,,Overcast,270,2012-10-20 04:18:00
11:45 PM,46.4,44.6,93,29.77,6.0,West,12.7,-,0.00,,Overcast,280,2012-10-20 04:45:00
11:50 PM,46.4,44.6,93,29.77,5.0,West,10.4,-,0.00,,Overcast,280,2012-10-20 04:50:00
11:54 PM,46.9,44.1,90,29.77,6.0,West,11.5,-,0.00,,Overcast,280,2012-10-20 04:54:00
11:59 PM,46.4,44.6,93,29.77,6.0,WNW,11.5,-,N/A,,Overcast,290,2012-10-20 04:59:00